User: anonymous   Login
Location: Theydon Bois
(51.6750°N, 0.1050°E)
Time: 12:15:38
(UTC+01:00)
Language:

FREGAT/IRIS - Orbit

View from above orbital plane
View from above orbital plane
View from above satellite
View from above satellite

Ground track
Ground track

The orbit data is extracted from the following two-line orbital elements,

1 35867U 09049C   17290.16007821  .00008937  00000-0  10649-3 0  9995
2 35867  97.0403 315.3695 0007077  96.5459 263.6605 15.61284727453255
Epoch (UTC): 17 October 2017 03:50:30
Eccentricity: 0.0007077
inclination: 97.0403°
perigee height: 379 km
apogee height: 389 km
right ascension of ascending node: 315.3695°
argument of perigee: 96.5459°
revolutions per day: 15.61284727
mean anomaly at epoch: 263.6605°
orbit number at epoch: 45325

The dashed part of the orbit path shows where the satellite is in the earth's shadow,  

DLR